Retour au catalogue

COSMOS 2251 DEB

ActifLEO
NORAD 35456·DEBRIS·🇷🇺 Russia

Lancé Jun 16, 1993 depuis Plesetsk Cosmodrome

Loading…

Prochains Passages (prochaines 24 heures)

TLE

FraisSource: Space-Track

Époque: Sep 13, 2026, 20:20 UTC

1 35456U 93036ALA 26256.84768880  .00005042  00000-0  74401-3 0  9994
2 35456  73.9473 299.2486 0056077  81.9879 278.7651 14.74487769699248

Suivez COSMOS 2251 DEB en temps réel avec AllMySat

Download on the App Store